Location: Antin
(43.3330°N, 0.2804°E)
Time: 23:19:08
(UTC+00:00)

SME Rocket - Pass Details

Date: 31 May 2022
Orbit: 551 x 2650 km, 99.9° (Epoch: 01 July)

Event Time Altitude Azimuth Distance (km) Brightness Sun altitude
Exits shadow 01:37:19 52° 208° (SSW) 839 3.3 -20.8°
Maximum altitude 01:38:09 63° 258° (WSW) 778 3.3 -20.7°
Drops below altitude 10° 01:43:33 10° 340° (NNW) 2,609 6.8 -20.3°
Sets 01:46:30 0° 343° (NNW) 3,842 7.8 -20.0°
